SCP
0 0 0 0 0 0 0 0 0 0 0 0 0 0 0 0 0 0 0 0 0 0 0 0 0 0 0 0 0 0 0 0 0 0 0 0 0 0 0 0 0 0 0 0
0 0 0 0 0 0 0 0 0 0 0 0 0 0 0 0 0 0 0 0 0 0 0 0 0 0 0 0 0 0 0 0 0 0 0 0 0 0 0 0 0 0 0 0
0 0 0 0 0 0 0 0 0 0 0 0 0 0 0 0 0 0 0 0 0 0 0 0 0 0 0 0 0 0 0 0 0 0 0 0 0 0 0 0 0 0 0 0
0 0 0 0 0 0 0 0 0 0 0 0 0 0 0 0 0 0 0 0 0 0 0 0 0 0 0 0 0 0 0 0 0 0 0 0 0 0 0 0 0 0 0 0
0 0 0 0 0 0 0 0 0 0 0 0 0 0 0 0 0 0 0 0 0 0 0 0 0 0 0 0 0 0 0 0 0 0 0 0 0 0 0 0 0 0 0 0
0 0 0 0 0 0 0 0 0 0 0 0 0 0 0 0 0 0 0 0 0 0 0 0 0 0 0 0 0 0 0 0 0 0 0 0 0 0 0 0 0 0 0 0
0 0 0 0 0 0 0 0 0 0 0 0 0 0 0 0 0 0 0 0 0 0 0 0 0 0 0 0 0 0 0 0 0 0 0 0 0 0 0 0 0 0 0 0
0 0 0 0 0 0 0 0 0 0 0 0 0 0 0 0 0 0 0 0 0 0 0 0 0 0 0 0 0 0 0 0 0 0 0 0 0 0 0 0 0 0 0 0
0 0 0 0 0 0 0 0 0 0 0 0 0 0 0 0 0 0 0 0 0 0 0 0 0 0 0 0 0 0 0 0 0 0 0 0 0 0 0 0 0 0 0 0
0 0 0 0 0 0 0 0 0 0 0 0 0 0 0 0 0 0 0 0 0 0 0 0 0 0 0 0 0 0 0 0 0 0 0 0 0 0 0 0 0 0 0 0
0 0 0 0 0 0 0 0 0 0 0 0 0 0 0 0 0 0 0 0 0 0 0 0 0 0 0 0 0 0 0 0 0 0 0 0 0 0 0 0 0 0 0 0
0 0 0 0 0 0 0 0 0 0 0 0 0 0 0 0 0 0 0 0 0 0 0 0 0 0 0 0 0 0 0 0 0 0 0 0 0 0 0 0 0 0 0 0
0 0 0 0 0 0 0 0 0 0 0 0 0 0 0 0 0 0 0 0 0 0 0 0 0 0 0 0 0 0 0 0 0 0 0 0 0 0 0 0 0 0 0 0
0 0 0 0 0 0 0 0 0 0 0 0 0 0 0 0 0 0 0 0 0 0 0 0 0 0 0 0 0 0 0 0 0 0 0 0 0 0 0 0 0 0 0 0
0 0 0 0 0 0 0 0 0 0 0 0 0 0 0 0 0 0 0 0 0 0 0 0 0 0 0 0 0 0 0 0 0 0 0 0 0 0 0 0 0 0 0 0
0 0 0 0 0 0 0 0 0 0 0 0 0 0 0 0 0 0 0 0 0 0 0 0 0 0 0 0 0 0 0 0 0 0 0 0 0 0 0 0 0 0 0 0
0 0 0 0 0 0 0 0 0 0 0 0 0 0 0 0 0 0 0 0 0 0 0 0 0 0 0 0 0 0 0 0 0 0 0 0 0 0 0 0 0 0 0 0
0 0 0 0 0 0 0 0 0 0 0 0 0 0 0 0 0 0 0 0 0 0 0 0 0 0 0 0 0 0 0 0 0 0 0 0 0 0 0 0 0 0 0 0
0 0 0 0 0 0 0 0 0 0 0 0 0 0 0 0 0 0 0 0 0 0 0 0 0 0 0 0 0 0 0 0 0 0 0 0 0 0 0 0 0 0 0 0
0 0 0 0 0 0 0 0 0 0 0 0 0 0 0 0 0 0 0 0 0 0 0 0 0 0 0 0 0 0 0 0 0 0 0 0 0 0 0 0 0 0 0 0
0 0 0 0 0 0 0 0 0 0 0 0 0 0 0 0 0 0 0 0 0 0 0 0 0 0 0 0 0 0 0 0 0 0 0 0 0 0 0 0 0 0 0 0
0 0 0 0 0 0 0 0 0 0 0 0 0 0 0 0 0 0 0 0 0 0 0 0 0 0 0 0 0 0 0 0 0 0 0 0 0 0 0 0 0 0 0 0
0 0 0 0 0 0 0 0 0 0 0 0 0 0 0 0 0 0 0 0 0 0 0 0 0 0 0 0 0 0 0 0 0 0 0 0 0 0 0 0 0 0 0 0
0 0 0 0 0 0 0 0 0 0 0 0 0 0 0 0 0 0 0 0 0 0 0 0 0 0 0 0 0 0 0 0 0 0 0 0 0 0 0 0 0 0 0 0
0 0 0 0 0 0 0 0 0 0 0 0 0 0 0 0 0 0 0 0 0 0 0 0 0 0 0 0 0 0 0 0 0 0 0 0 0 0 0 0 0 0 0 0
0 0 0 0 0 0 0 0 0 0 0 0 0 0 0 0 0 0 0 0 0 0 0 0 0 0 0 0 0 0 0 0 0 0 0 0 0 0 0 0 0 0 0 0
0 0 0 0 0 0 0 0 0 0 0 0 0 0 0 0 0 0 0 0 0 0 0 0 0 0 0 0 0 0 0 0 0 0 0 0 0 0 0 0 0 0 0 0
Wind_Speed
5 5 4 7 9 11 13 12 11 11 13 16 12 10 9 7 6 6 6 6 6 6 6 6 5 5 5 5 5 5 5 5 5 5 4 4 4 3 3 3 3 3 3 3
4 3 5 10 14 16 16 15 16 16 19 15 11 8 8 7 6 7 7 7 7 6 6 6 6 6 5 6 5 6 6 6 5 4 4 4 4 3 3 3 3 3 3 3
4 2 4 12 14 17 14 14 13 16 14 7 7 7 7 7 7 8 8 8 7 7 7 7 6 6 6 6 5 6 6 5 5 5 5 4 4 4 4 4 4 4 3 3
2 0 10 8 3 10 12 13 16 15 13 9 8 7 7 8 8 9 8 8 7 6 6 5 5 5 4 4 5 6 6 6 5 5 5 5 5 5 5 4 4 4 4 4
3 6 12 9 5 8 10 11 12 16 15 10 5 6 7 6 8 8 8 7 6 5 4 4 4 4 4 4 4 5 6 6 6 6 6 6 6 5 5 4 4 4 3 4
5 6 10 5 2 4 4 8 6 11 11 7 2 5 4 2 4 6 5 4 4 3 2 3 3 4 4 5 5 6 6 5 5 6 6 6 6 5 4 4 4 4 4 4
9 10 12 5 4 6 6 5 2 7 7 6 8 7 4 4 4 4 3 3 2 2 3 4 3 4 5 5 7 6 4 4 5 6 6 5 4 4 4 4 4 4 4 3
8 9 13 5 9 10 6 1 1 3 5 7 8 7 6 6 5 4 3 3 2 3 3 3 4 5 6 7 5 3 4 4 4 4 4 4 4 4 4 4 4 4 3 3
12 11 3 8 9 6 1 3 4 4 5 6 7 8 8 7 6 5 4 4 3 3 3 3 4 5 7 5 3 3 4 4 3 3 3 4 4 4 4 4 4 4 3 3
9 12 8 8 9 7 6 7 7 5 5 5 8 8 8 7 6 5 4 4 3 3 4 5 4 5 5 2 3 4 5 4 3 4 4 3 3 4 4 4 4 4 4 4
10 9 8 9 10 11 10 9 10 9 7 8 9 10 9 8 7 6 5 3 3 4 5 5 4 5 3 2 4 5 5 4 4 4 4 4 4 3 4 4 4 4 4 4
11 8 8 8 5 6 8 9 9 9 8 7 7 10 9 8 6 5 4 3 3 4 5 4 4 4 3 3 4 5 5 5 4 4 3 3 3 2 3 4 4 5 5 4
9 6 7 8 5 4 6 8 7 7 8 8 7 6 6 6 5 4 3 4 5 5 4 3 3 4 3 3 4 5 5 5 4 4 4 4 4 4 3 2 3 4 4 5
7 5 8 8 9 6 6 7 5 5 5 5 5 5 4 5 4 4 5 5 4 3 3 3 3 4 3 3 4 5 5 4 4 4 4 4 4 4 3 3 3 2 3 5
8 8 10 8 7 5 5 4 5 6 5 5 4 4 4 4 6 6 4 2 2 2 3 3 4 4 2 3 4 5 4 4 3 3 3 3 3 3 3 3 3 3 2 3
8 8 8 8 10 8 6 5 6 8 7 6 5 5 5 5 5 4 3 2 3 4 4 4 5 3 3 4 4 4 3 4 3 3 3 3 3 3 3 3 3 3 3 3
6 7 7 8 9 9 7 7 7 8 7 6 7 6 4 4 4 4 3 3 3 4 3 4 4 2 3 4 4 3 3 3 4 4 4 4 4 4 4 4 4 4 4 4
7 9 8 7 7 8 8 7 6 6 6 6 6 4 4 4 5 5 3 2 2 2 3 2 2 2 3 4 4 3 3 3 4 4 4 4 4 4 4 4 4 4 3 3
6 7 7 7 7 6 7 6 6 6 6 4 4 4 5 5 4 3 2 2 3 4 3 2 2 2 3 4 3 3 3 3 3 3 3 4 4 4 4 4 4 4 4 3
5 5 5 6 5 5 5 5 5 5 4 3 3 3 4 4 2 2 2 3 3 3 2 2 2 2 3 3 4 3 4 4 4 3 3 4 4 4 4 4 4 4 4 4
5 5 5 5 5 5 5 4 4 5 5 3 3 4 4 3 2 2 2 4 3 2 1 2 2 2 2 3 3 3 3 4 4 4 4 4 4 4 4 5 5 5 5 5
4 4 5 4 4 5 5 4 3 4 4 3 3 2 2 2 2 2 3 3 2 1 1 2 2 2 2 3 3 3 3 3 3 3 3 4 4 4 4 5 5 5 5 5
4 4 4 4 4 5 5 4 3 3 3 3 3 3 3 3 2 3 3 3 2 2 2 2 2 2 2 2 2 3 3 3 3 3 4 4 4 4 4 5 5 5 5 5
4 3 4 3 3 3 4 5 4 3 3 3 3 3 3 3 2 2 3 3 3 2 2 2 2 2 2 1 2 2 3 3 3 3 3 3 4 4 4 4 5 5 5 6
3 3 3 2 2 2 3 4 4 4 4 3 4 4 3 3 3 3 3 3 3 2 2 2 2 1 2 2 2 2 3 3 3 3 3 3 3 4 4 4 4 5 5 5
2 2 2 2 2 2 2 2 2 3 3 3 4 4 3 3 3 3 2 2 2 2 2 1 1 1 2 2 2 2 2 2 3 3 3 3 4 4 4 4 6 5 5 5
2 1 1 2 2 2 2 2 2 3 3 3 3 3 3 3 3 3 3 2 2 2 2 1 1 1 2 2 2 2 2 2 3 3 3 3 4 4 4 5 5 5 5 5
Wind_Direction
267 273 246 238 227 210 215 224 233 248 257 269 275 276 280 280 277 270 264 256 248 246 243 234 227 225 222 221 210 201 200 204 211 209 203 199 198 198 199 202 205 208 208 212
265 257 258 260 243 230 232 237 246 261 268 269 277 274 273 271 266 263 260 258 255 249 244 236 229 227 223 221 211 201 205 209 205 200 196 195 197 195 194 200 204 202 205 210
254 280 293 262 232 214 218 220 220 237 249 264 264 261 263 263 257 256 260 259 255 251 243 234 229 222 222 220 208 201 205 204 199 197 198 198 192 192 198 202 203 205 208 211
262 254 245 250 170 198 216 233 224 241 255 259 260 277 275 263 258 263 264 263 261 254 249 238 226 219 218 208 206 206 206 204 199 198 200 197 196 202 205 202 205 210 212 215
205 245 270 275 210 187 206 251 226 234 250 259 280 294 269 245 240 253 261 261 260 255 246 230 218 211 200 204 206 209 213 211 206 201 200 199 203 206 205 202 206 209 210 212
203 229 246 259 157 172 179 263 224 216 237 243 203 257 274 307 276 274 277 269 265 255 232 213 209 194 197 207 212 220 219 216 209 204 203 206 208 206 204 203 208 204 209 216
216 237 259 262 136 150 196 253 197 201 217 205 214 242 302 313 296 286 280 278 269 236 222 216 192 187 203 210 223 229 221 211 206 206 206 207 203 200 200 199 200 207 214 220
194 221 247 166 153 196 229 321 204 222 225 222 238 265 286 288 284 280 279 278 253 234 235 214 193 197 213 225 232 222 210 208 207 204 199 195 194 198 196 194 198 210 219 229
202 223 258 170 199 223 284 274 271 263 257 247 256 265 271 276 275 270 263 259 244 235 234 224 208 210 224 233 211 207 205 206 202 194 196 193 194 196 196 198 205 211 216 229
244 255 252 237 249 259 255 261 276 276 274 263 264 273 274 273 274 270 261 250 240 226 229 234 222 222 233 230 196 197 204 205 195 195 200 196 199 200 203 203 208 213 220 229
248 267 285 262 243 251 261 266 270 270 266 263 265 268 265 265 264 260 256 246 230 228 233 237 226 231 230 198 188 199 204 203 202 204 202 203 207 210 216 220 219 218 223 222
241 233 232 258 257 248 255 263 266 269 273 269 254 261 265 264 265 262 254 239 232 235 239 240 227 229 221 201 193 193 199 203 204 204 202 203 200 215 234 239 239 236 242 234
254 261 250 268 283 274 266 271 269 261 263 271 268 264 264 268 270 264 256 239 233 235 234 231 224 228 223 205 198 200 202 199 200 200 200 200 200 202 209 221 230 233 237 234
264 279 272 268 273 281 277 282 284 277 274 274 278 279 270 270 274 260 253 247 241 236 227 218 221 233 220 201 199 203 203 198 196 198 201 201 203 205 205 203 209 224 234 236
263 250 255 278 293 298 299 299 292 286 290 291 288 278 270 259 258 260 263 251 219 222 225 218 227 239 207 196 198 200 200 198 198 198 200 201 199 197 202 208 214 219 229 234
271 262 266 274 278 285 291 288 279 281 286 288 287 279 272 266 268 269 259 209 203 227 228 222 232 232 193 193 196 200 205 196 189 190 190 192 193 195 202 210 216 220 226 226
272 272 272 275 277 283 280 275 272 276 281 279 278 282 283 277 275 269 260 235 230 243 236 227 234 205 187 191 195 199 200 195 191 191 195 197 198 204 208 212 220 230 234 227
256 265 270 272 279 282 284 283 279 279 276 278 283 280 265 252 255 262 260 252 251 265 259 251 229 191 194 199 201 199 195 195 197 201 201 203 208 212 215 220 224 231 239 234
275 279 286 286 283 280 281 283 283 278 279 278 271 262 259 258 259 261 247 225 232 250 263 258 231 199 207 207 197 197 197 199 203 207 206 204 208 215 219 224 228 231 230 231
293 295 297 300 301 290 287 295 298 291 286 277 268 268 270 269 265 253 237 240 246 269 271 238 214 209 208 204 196 199 199 201 204 205 206 209 214 218 221 225 229 232 232 232
304 307 310 311 311 310 303 301 299 295 297 289 265 264 270 280 276 249 244 258 272 290 255 217 206 206 202 200 197 199 199 201 204 207 209 215 221 224 225 226 229 233 235 237
305 305 304 306 309 311 314 316 315 307 309 308 302 293 285 284 281 270 258 267 281 282 258 235 228 217 207 194 197 199 203 205 208 210 214 216 219 225 230 233 235 239 241 242
294 294 300 302 300 305 319 332 332 324 318 317 312 302 291 284 275 267 275 288 290 273 265 254 249 208 189 189 198 202 205 209 215 217 221 224 226 228 231 234 238 242 245 247
299 302 306 309 311 323 330 332 333 331 331 326 321 312 301 295 292 291 295 283 277 270 270 259 232 200 182 201 203 210 214 217 222 226 229 232 234 234 236 238 242 246 249 252
301 306 315 325 329 320 320 329 338 346 349 345 342 341 331 312 294 300 305 297 298 292 280 259 237 217 212 216 214 219 224 226 228 230 232 236 239 241 243 244 245 249 251 252
300 299 302 306 303 306 312 320 325 328 333 334 335 337 336 335 333 322 315 311 310 304 292 267 238 226 232 232 233 236 237 236 235 234 237 242 245 247 251 253 257 255 256 257
323 327 333 335 336 330 321 315 313 312 314 315 318 319 326 331 333 330 327 325 323 317 312 304 275 253 252 251 250 251 249 246 245 246 247 250 251 253 256 258 260 261 261 261